Hourly Weather Roundup
Issued by NWS Central Illinois

Home | Current Version | Previous Version | Text Only | Print | Product List | Glossary On
Versions: 1 2 3 4 5 6 7 8 9 10 11 12 13 14 15 16 17 18 19 20 21 22 23 24 25 26 27 28 29 30 31 32 33 34 35 36 37 38 39 40 41 42 43 44 45 46 47 48 49 50
802
NZUS43 KILX 250910
HWRILX

Area Weather Roundup
National Weather Service Lincoln IL
400 AM CDT THU MAY 25 2017

NOTE:  "FAIR" indicates few or no clouds below 12,000 feet, with
       no sigificant weather and/or obstructions to visibility.


CITY           SKY/WX    TMP DP  RH WIND       PRES   REMARKS
Bloomington    CLOUDY    54  51  90 N18G24    29.58S
Champaign      CLOUDY    56  52  86 NW16      29.53S
Danville       CLOUDY    54  53  97 NW10      29.47S FOG
Decatur        CLOUDY    57  53  86 NW13G25   29.56S
Effingham      CLOUDY    58  57  96 W12G17    29.57R
Flora          CLOUDY    59  56  88 W13       29.56S
Galesburg      CLEAR     49  49  99 NW6       29.63F
Jacksonville   CLEAR     52  51  95 W6        29.63R
Lacon          CLOUDY    54  51  89 N10G17    29.60R
Lawrenceville  CLOUDY    59  56  89 NW13      29.51S
Litchfield     CLOUDY    55  53  94 NW13      29.62R
$$


CITY           SKY/WX    TMP DP  RH WIND       PRES   REMARKS
Lincoln        PTCLDY    55  54  97 NW5       29.59S
Macomb         CLEAR     50  49  97 NW6       29.66S
Mattoon        CLOUDY    56  55  97 NW14      29.53R
Mt Carmel AP   CLOUDY    58  55  89 W10       29.52R
Olney-Noble AP CLOUDY    58  58 100 NW14      29.55R
Paris AP       CLOUDY    55  54  96 NW9G18    29.51S
Peoria         CLEAR     54  51  90 N5        29.61R
Pontiac        CLOUDY    54  54  99 NW16      29.57S
Rantoul        CLOUDY    56  54  92 NW13      29.52S
Robinson       CLOUDY    57  55  91 NW12      29.51S
Springfield    PTCLDY    56  53  90 NW12      29.61R
Taylorville    CLOUDY    55  53  91 NW12      29.59S
$$

...REGIONAL REPORTS...


CITY           SKY/WX    TMP DP  RH WIND       PRES   REMARKS
Chicago O`Hare CLOUDY    55  50  83 N12       29.55R
Kankakee       CLOUDY    55  52  91 NW10G16   29.53R
Moline         MOCLDY    53  49  86 N6        29.64S
Mount Sterling CLEAR     51  50  95 NW6       29.64S
Mount Vernon     N/A     56  54  93 VRB5      29.59R
Pittsfield     CLEAR     53  51  95 NW5       29.66R
Quincy         CLEAR     50  49  96 NW7       29.65R
Rockford       CLOUDY    55  51  86 N9        29.62S
$$


CITY           SKY/WX    TMP DP  RH WIND       PRES   REMARKS
Burlington     CLEAR     50  50 100 N6        29.64S
Cedar Rapids   CLEAR     46  46 100 N7        29.66S FOG
Des Moines     CLEAR     49  46  90 CALM      29.68S
Kirksville     FOG       42  42 100 CALM      29.68S VSB 3/4
Ottumwa        FOG       42  42 100 NW5       29.67S VSB 3/4
St Louis       CLEAR     56  51  84 W7        29.64R
$$


CITY           SKY/WX    TMP DP  RH WIND       PRES   REMARKS
Terre Haute    CLOUDY    56  53  90 NW8       29.48S
Evansville     CLOUDY    59  55  87 W8        29.54R
Indianapolis   LGT RAIN  56  54  93 NW15      29.40S FOG
Lafayette      LGT RAIN  54  53  97 NW14      29.44S FOG
Madison        CLOUDY    52  50  93 N9        29.64R
Milwaukee      MOCLDY    53  50  89 N14G22    29.58S
$$






USA.gov is the U.S. government's official web portal to all federal, state and local government web resources and services.